period_start,C,m1,H,J0,J1,J2,J3,J4,J5,JA,JB,JC,JD,JJ,JK,JN,#
2015-08-24 00:00:40,-0.02,0.43,0.00,27.02,30.35,33.02,14.26,49.99,1011.23,2026.74,3255.00,3107.75,3351.06,600.14,585.15,20.98,0000 0000 0000 0000 000000
2015-08-24 00:05:41,-0.03,0.43,0.00,27.02,30.36,33.04,14.18,50.07,1011.25,2026.17,3255.00,3107.32,3351.02,599.97,584.92,21.03,0000 0000 0000 0000 000000
2015-08-24 00:10:42,-0.00,0.43,0.00,27.03,30.37,33.06,14.20,50.04,1011.28,2026.04,3255.00,3107.14,3351.00,600.17,585.15,21.08,0000 0000 0000 0000 000000
2015-08-24 00:15:43,0.00,0.43,0.00,27.05,30.39,33.09,14.25,50.04,1011.56,2026.02,3255.00,3107.07,3351.00,599.84,584.94,21.13,0000 0000 0000 0000 000000
2015-08-24 00:20:44,0.00,0.43,0.00,27.06,30.40,33.08,14.17,49.83,1011.73,2026.01,3254.98,3107.02,3351.00,599.93,585.08,21.18,0000 0000 0000 0000 000000
2015-08-24 00:25:45,0.00,0.43,0.00,27.07,30.41,33.09,14.28,49.98,1011.74,2026.00,3254.94,3107.02,3351.00,600.26,585.36,21.23,0000 0000 0000 0000 000000
2015-08-24 00:30:47,0.00,0.43,0.00,27.07,30.42,33.11,14.15,49.77,1012.00,2026.00,3254.81,3107.00,3350.98,599.81,585.07,21.28,0000 0000 0000 0000 000000
2015-08-24 00:35:48,0.01,0.43,0.00,27.08,30.44,33.15,14.26,49.83,1012.22,2026.00,3254.24,3107.00,3350.81,600.14,585.52,21.33,0000 0000 0000 0000 000000
2015-08-24 00:40:49,0.01,0.43,0.00,27.08,30.45,33.17,14.19,49.83,1012.23,2025.99,3254.02,3106.96,3350.15,599.66,585.01,21.38,0000 0000 0000 0000 000000
2015-08-24 00:45:51,-0.00,0.43,0.00,27.09,30.46,33.19,14.28,49.87,1012.24,2025.97,3254.05,3106.97,3350.04,600.55,585.91,21.43,0000 0000 0000 0000 000000
2015-08-24 00:50:52,0.00,0.43,0.00,27.10,30.47,33.20,14.23,49.77,1012.35,2025.92,3254.06,3106.92,3350.01,599.92,585.28,21.48,0000 0000 0000 0000 000000
2015-08-24 00:55:53,-0.01,0.43,0.00,27.10,30.48,33.19,14.28,49.74,1012.70,2025.82,3254.00,3106.73,3350.00,600.03,585.77,21.53,0000 0000 0000 0000 000000
2015-08-24 01:00:54,-0.01,0.43,0.00,27.12,30.50,33.20,14.26,49.86,1012.72,2025.60,3254.00,3106.32,3350.00,599.90,585.62,21.58,0000 0000 0000 0000 000000
2015-08-24 01:05:56,-0.02,0.43,0.00,27.12,30.50,33.25,14.20,49.67,1012.89,2025.27,3253.99,3106.03,3349.95,600.11,585.80,21.63,0000 0000 0000 0000 000000
2015-08-24 01:10:57,-0.01,0.43,0.00,27.12,30.52,33.23,14.27,49.98,1013.03,2025.03,3253.97,3106.00,3349.57,599.95,585.75,21.68,0000 0000 0000 0000 000000
2015-08-24 01:15:58,0.01,0.43,0.00,27.13,30.52,33.25,14.22,49.71,1013.19,2025.01,3253.76,3105.99,3349.15,599.71,585.47,21.73,0000 0000 0000 0000 000000
2015-08-24 01:20:59,0.00,0.43,0.00,27.15,30.54,33.26,14.26,49.71,1013.20,2025.01,3253.56,3105.98,3349.06,600.12,585.95,21.78,0000 0000 0000 0000 000000
2015-08-24 01:26:01,0.01,0.43,0.00,27.15,30.55,33.28,14.33,49.76,1013.20,2025.00,3253.10,3105.94,3349.00,600.00,585.83,21.83,0000 0000 0000 0000 000000
2015-08-24 01:31:02,0.00,0.43,0.00,27.15,30.56,33.28,14.23,49.69,1013.20,2025.00,3253.03,3105.84,3349.00,599.92,585.69,21.88,0000 0000 0000 0000 000000
2015-08-24 01:36:03,0.01,0.43,0.00,27.17,30.57,33.30,14.25,49.89,1013.20,2025.00,3253.00,3105.43,3348.99,599.89,585.59,21.93,0000 0000 0000 0000 000000
2015-08-24 01:41:04,0.00,0.43,0.00,27.17,30.57,33.31,14.34,49.88,1013.20,2025.00,3253.00,3105.13,3348.97,600.45,586.07,21.98,0000 0000 0000 0000 000000
2015-08-24 01:46:06,0.00,0.43,0.00,27.17,30.60,33.31,14.28,49.99,1013.20,2024.99,3252.97,3105.04,3348.72,599.94,585.67,22.03,0000 0000 0000 0000 000000
2015-08-24 01:51:07,0.01,0.43,0.00,27.18,30.60,33.35,14.25,49.83,1013.22,2024.98,3252.66,3105.00,3348.14,600.23,585.96,22.08,0000 0000 0000 0000 000000
2015-08-24 01:56:08,0.01,0.43,0.00,27.19,30.61,33.34,14.28,50.07,1013.21,2024.97,3252.17,3105.00,3348.02,599.95,585.80,22.13,0000 0000 0000 0000 000000
2015-08-24 02:01:10,-0.00,0.43,0.00,27.20,30.62,33.36,14.31,49.98,1013.30,2024.97,3252.02,3104.97,3348.00,600.19,585.82,22.18,0000 0000 0000 0000 000000
2015-08-24 02:06:11,0.00,0.43,0.00,27.19,30.62,33.37,14.28,50.00,1013.34,2024.96,3252.00,3104.90,3347.99,600.14,585.96,22.24,0000 0000 0000 0000 000000
2015-08-24 02:11:12,0.00,0.43,0.00,27.19,30.64,33.38,14.21,49.96,1013.36,2024.93,3252.00,3104.80,3347.97,600.00,585.84,22.29,0000 0000 0000 0000 000000
2015-08-24 02:16:13,0.01,0.43,0.00,27.19,30.65,33.39,14.25,50.06,1013.63,2024.84,3251.95,3104.32,3347.86,600.20,586.17,22.34,0000 0000 0000 0000 000000
2015-08-24 02:21:14,0.01,0.43,0.00,27.17,30.65,33.41,14.23,49.77,1013.75,2024.85,3251.79,3104.09,3347.60,599.84,585.99,22.39,0000 0000 0000 0000 000000
2015-08-24 02:26:16,0.01,0.43,0.00,27.19,30.65,33.40,14.26,49.67,1014.07,2024.70,3251.26,3104.02,3347.17,599.94,586.21,22.44,0000 0000 0000 0000 000000
2015-08-24 02:31:17,-0.00,0.43,0.00,27.20,30.67,33.43,14.20,49.78,1013.76,2024.64,3251.02,3104.00,3347.02,599.87,585.78,22.49,0000 0000 0000 0000 000000
2015-08-24 02:36:18,-0.03,0.43,0.00,27.21,30.67,33.43,14.25,49.98,1013.70,2024.49,3251.00,3104.00,3347.00,599.71,585.69,22.54,0000 0000 0000 0000 000000
2015-08-24 02:41:19,0.00,0.43,0.00,27.22,30.68,33.42,14.19,49.86,1013.83,2024.30,3251.00,3104.00,3347.00,599.89,586.11,22.59,0000 0000 0000 0000 000000
2015-08-24 02:46:21,-0.00,0.43,0.00,27.24,30.70,33.43,14.17,49.97,1014.13,2024.37,3250.99,3103.98,3346.99,600.12,586.27,22.64,0000 0000 0000 0000 000000
2015-08-24 02:51:22,-0.01,0.43,0.00,27.25,30.70,33.43,14.20,49.98,1014.18,2024.28,3250.98,3103.91,3346.95,599.88,586.02,22.69,0000 0000 0000 0000 000000
2015-08-24 02:56:24,0.02,0.43,0.00,27.27,30.72,33.43,14.25,49.85,1014.27,2024.05,3250.79,3103.38,3346.44,599.65,585.88,22.74,0000 0000 0000 0000 000000
2015-08-24 03:01:25,0.01,0.43,0.00,27.28,30.73,33.42,14.23,49.97,1014.42,2024.02,3250.42,3103.04,3346.07,600.01,586.31,22.79,0000 0000 0000 0000 000000
2015-08-24 03:06:26,0.00,0.43,0.00,27.30,30.75,33.43,14.21,49.98,1014.55,2024.00,3250.06,3103.00,3346.00,599.77,586.19,22.84,0000 0000 0000 0000 000000
2015-08-24 03:11:28,0.00,0.43,0.00,27.31,30.76,33.43,14.30,50.06,1014.66,2024.00,3250.00,3103.00,3345.98,600.20,586.47,22.89,0000 0000 0000 0000 000000
2015-08-24 03:16:29,0.00,0.43,0.00,27.34,30.77,33.45,14.30,49.93,1014.66,2024.00,3249.98,3102.96,3345.88,600.32,586.49,22.94,0000 0000 0000 0000 000000
2015-08-24 03:21:30,0.02,0.43,0.00,27.36,30.79,33.44,14.23,49.94,1014.66,2023.99,3249.83,3102.62,3345.34,600.08,586.40,22.99,0000 0000 0000 0000 000000
2015-08-24 03:26:31,0.02,0.44,0.00,27.38,30.80,33.46,14.23,50.09,1014.72,2023.99,3249.28,3102.13,3345.04,599.93,586.14,23.04,0000 0000 0000 0000 000000
2015-08-24 03:31:33,0.00,0.44,0.00,27.41,30.82,33.47,14.24,49.97,1015.00,2023.99,3249.01,3102.02,3345.00,600.00,586.35,23.09,0000 0000 0000 0000 000000
2015-08-24 03:36:34,0.00,0.44,0.00,27.43,30.83,33.45,14.34,49.76,1015.13,2023.98,3248.99,3102.00,3344.98,600.30,586.76,23.14,0000 0000 0000 0000 000000
2015-08-24 03:41:35,0.01,0.44,0.00,27.45,30.85,33.46,14.18,49.82,1015.14,2023.92,3248.74,3101.92,3344.57,600.05,586.45,23.19,0000 0000 0000 0000 000000
2015-08-24 03:46:36,0.03,0.44,0.00,27.49,30.87,33.49,14.28,49.69,1015.13,2023.88,3248.15,3101.41,3344.04,599.76,586.04,23.24,0000 0000 0000 0000 000000
2015-08-24 03:51:38,-0.00,0.44,0.00,27.51,30.89,33.48,14.29,49.83,1015.13,2023.76,3248.01,3101.08,3344.00,600.18,586.32,23.29,0000 0000 0000 0000 000000
2015-08-24 03:56:39,-0.04,0.44,0.00,27.53,30.91,33.49,14.25,49.79,1015.15,2023.38,3247.98,3101.01,3343.98,599.78,586.06,23.34,0000 0000 0000 0000 000000
2015-08-24 04:01:40,0.01,0.44,0.00,27.56,30.93,33.50,14.17,49.72,1015.15,2023.10,3247.74,3100.98,3343.46,600.30,586.36,23.39,0000 0000 0000 0000 000000
2015-08-24 04:06:41,0.02,0.44,0.00,27.58,30.95,33.52,14.27,49.93,1015.17,2023.04,3247.23,3100.60,3343.02,600.18,586.29,23.44,0000 0000 0000 0000 000000
2015-08-24 04:11:43,0.01,0.44,0.00,27.60,30.97,33.52,14.24,49.83,1015.39,2023.00,3247.01,3100.05,3342.99,600.03,586.50,23.49,0000 0000 0000 0000 000000
2015-08-24 04:16:44,0.00,0.44,0.00,27.62,30.99,33.54,14.27,49.84,1015.64,2023.00,3246.92,3100.00,3342.79,599.87,586.23,23.54,0000 0000 0000 0000 000000
2015-08-24 04:21:45,0.02,0.44,0.00,27.63,31.01,33.58,14.19,49.77,1015.64,2023.00,3246.33,3099.99,3342.18,600.30,586.70,23.59,0000 0000 0000 0000 000000
2015-08-24 04:26:46,0.01,0.44,0.00,27.65,31.02,33.59,14.30,49.78,1015.64,2022.99,3246.02,3099.68,3342.00,600.07,586.32,23.64,0000 0000 0000 0000 000000
2015-08-24 04:31:47,0.01,0.44,0.00,27.67,31.05,33.65,14.25,49.75,1015.66,2022.98,3245.97,3099.16,3341.99,599.78,586.05,23.69,0000 0000 0000 0000 000000
2015-08-24 04:36:48,0.01,0.44,0.00,27.67,31.06,33.64,14.16,49.77,1015.68,2022.93,3245.56,3099.00,3341.49,599.58,585.81,23.74,0000 0000 0000 0000 000000
2015-08-24 04:41:50,-0.02,0.44,0.00,27.70,31.08,33.67,14.27,49.78,1015.76,2022.66,3245.04,3098.97,3341.02,599.65,586.02,23.79,0000 0000 0000 0000 000000
2015-08-24 04:46:51,-0.01,0.44,0.00,27.70,31.10,33.69,14.29,49.89,1015.73,2022.34,3244.99,3098.70,3341.00,600.07,586.29,23.84,0000 0000 0000 0000 000000
2015-08-24 04:51:52,0.05,0.44,0.00,27.71,31.12,33.72,14.24,49.84,1015.64,2022.64,3244.70,3098.49,3340.97,599.94,586.02,23.89,0000 0000 0000 0000 000000
2015-08-24 04:56:53,-0.02,0.44,0.00,27.73,31.13,33.74,14.24,49.68,1015.65,2022.41,3244.13,3098.06,3340.63,600.19,586.32,23.94,0000 0000 0000 0000 000000
2015-08-24 05:01:55,-0.01,0.44,0.00,27.75,31.15,33.77,14.22,49.67,1015.95,2022.11,3243.99,3097.99,3340.04,600.22,586.65,23.99,0000 0000 0000 0000 000000
2015-08-24 05:06:56,-0.00,0.44,0.00,27.77,31.17,33.77,14.29,49.58,1016.12,2022.04,3243.98,3097.97,3340.00,600.07,586.44,24.04,0000 0000 0000 0000 000000
2015-08-24 05:11:57,0.01,0.44,0.00,27.79,31.19,33.78,14.27,49.88,1016.13,2022.01,3243.51,3097.74,3339.98,600.19,586.48,24.09,0000 0000 0000 0000 000000
2015-08-24 05:16:58,0.03,0.44,0.00,27.80,31.20,33.81,14.14,49.67,1016.13,2022.00,3243.03,3097.12,3339.43,599.73,586.08,24.14,0000 0000 0000 0000 000000
2015-08-24 05:21:59,0.00,0.44,0.00,27.81,31.22,33.85,14.25,49.78,1016.13,2022.00,3242.98,3097.00,3339.04,599.99,586.42,24.19,0000 0000 0000 0000 000000
2015-08-24 05:27:00,0.00,0.44,0.00,27.82,31.23,33.85,14.27,49.77,1016.14,2022.00,3242.75,3096.99,3339.00,600.14,586.25,24.24,0000 0000 0000 0000 000000
2015-08-24 05:32:02,0.02,0.44,0.00,27.85,31.25,33.87,14.23,49.87,1016.14,2022.00,3242.07,3096.81,3338.86,599.96,586.12,24.29,0000 0000 0000 0000 000000
2015-08-24 05:37:03,0.02,0.45,0.00,27.90,31.27,33.84,14.24,49.77,1016.21,2021.98,3241.99,3096.14,3338.13,599.80,586.01,24.34,0000 0000 0000 0000 000000
2015-08-24 05:42:05,-0.00,0.45,0.00,27.96,31.29,33.81,14.25,49.72,1016.37,2021.97,3241.88,3096.02,3338.00,599.79,585.86,24.39,0000 0000 0000 0000 000000
2015-08-24 05:47:06,0.01,0.45,0.00,28.00,31.31,33.81,14.27,49.63,1016.58,2021.93,3241.26,3096.00,3337.97,600.16,586.28,24.44,0000 0000 0000 0000 000000
2015-08-24 05:52:07,0.00,0.45,0.00,28.03,31.33,33.82,14.17,49.69,1016.61,2021.81,3241.01,3095.83,3337.50,599.65,585.70,24.49,0000 0000 0000 0000 000000
2015-08-24 05:57:08,0.00,0.45,0.00,28.06,31.35,33.83,14.20,49.52,1016.63,2021.58,3240.84,3095.20,3337.03,600.11,586.12,24.54,0000 0000 0000 0000 000000
2015-08-24 06:02:10,-0.03,0.45,0.00,28.07,31.37,33.85,14.16,49.66,1016.64,2021.17,3240.21,3095.00,3336.95,600.00,586.03,24.59,0000 0000 0000 0000 000000
2015-08-24 06:07:11,0.01,0.45,0.00,28.07,31.39,33.89,14.19,49.57,1016.70,2021.02,3240.00,3094.88,3336.38,599.88,585.93,24.64,0000 0000 0000 0000 000000
2015-08-24 06:12:12,0.01,0.45,0.00,28.07,31.41,33.90,14.19,49.67,1016.88,2021.00,3239.92,3094.32,3336.02,599.78,585.94,24.69,0000 0000 0000 0000 000000
2015-08-24 06:17:13,0.02,0.45,0.00,28.07,31.44,33.92,14.19,49.65,1017.07,2021.00,3239.23,3094.01,3335.94,599.83,586.06,24.74,0000 0000 0000 0000 000000
2015-08-24 06:22:15,0.01,0.45,0.00,28.06,31.46,33.99,14.22,49.62,1017.10,2021.00,3238.99,3093.99,3335.32,599.97,586.26,24.79,0000 0000 0000 0000 000000
2015-08-24 06:27:16,0.00,0.45,0.00,27.98,31.47,34.14,14.30,49.63,1017.11,2020.99,3238.86,3093.91,3335.04,600.04,586.53,24.84,0000 0000 0000 0000 000000
2015-08-24 06:32:17,0.02,0.45,0.00,27.85,31.47,34.29,14.25,49.54,1017.15,2020.98,3238.25,3093.51,3335.00,599.61,586.40,24.89,0000 0000 0000 0000 000000
2015-08-24 06:37:19,0.01,0.45,0.00,27.71,31.47,34.35,14.33,49.75,1017.43,2020.97,3238.00,3093.15,3334.98,600.18,587.43,24.94,0000 0000 0000 0000 000000
2015-08-24 06:42:20,0.00,0.45,0.00,27.62,31.47,34.34,14.31,49.63,1017.57,2020.99,3237.98,3093.05,3334.93,599.99,587.20,24.99,0000 0000 0000 0000 000000
2015-08-24 06:47:21,0.01,0.45,0.00,27.58,31.46,34.30,14.25,49.70,1017.59,2020.99,3237.69,3093.01,3334.59,599.41,586.94,25.04,0000 0000 0000 0000 000000
2015-08-24 06:52:22,0.01,0.45,0.00,27.56,31.45,34.25,14.32,49.70,1017.59,2020.99,3237.43,3093.01,3334.33,600.14,587.70,25.09,0000 0000 0000 0000 000000
2015-08-24 06:57:24,0.01,0.45,0.00,27.56,31.42,34.18,14.30,49.55,1017.59,2020.99,3237.04,3093.00,3334.04,600.03,587.48,25.14,0000 0000 0000 0000 000000
2015-08-24 07:02:25,0.00,0.45,0.00,27.57,31.41,34.12,14.29,49.67,1017.58,2020.99,3237.01,3093.00,3334.02,600.25,587.87,25.19,0000 0000 0000 0000 000000
2015-08-24 07:07:26,0.00,0.45,0.00,27.53,31.40,34.10,14.31,49.75,1017.59,2020.99,3237.00,3093.00,3334.00,600.35,588.05,25.24,0000 0000 0000 0000 000000
2015-08-24 07:12:27,0.00,0.45,0.00,27.44,31.37,34.14,14.32,49.73,1017.59,2020.99,3236.94,3092.99,3334.00,599.59,587.39,25.29,0000 0000 0000 0000 000000
2015-08-24 07:17:29,0.00,0.45,0.00,27.33,31.36,34.17,14.32,49.67,1017.60,2020.99,3236.64,3092.99,3334.00,600.05,588.13,25.34,0000 0000 0000 0000 000000
2015-08-24 07:22:30,0.00,0.45,0.00,27.22,31.33,34.19,14.31,49.62,1017.60,2021.01,3236.42,3092.99,3333.99,599.79,587.96,25.39,0000 0000 0000 0000 000000
2015-08-24 07:27:31,0.00,0.45,0.00,27.12,31.29,34.16,14.42,49.77,1017.60,2021.10,3236.53,3093.00,3334.00,600.02,588.49,25.44,0000 0000 0000 0000 000000
2015-08-24 07:32:32,0.03,0.45,0.00,27.02,31.25,34.03,14.35,49.86,1017.66,2021.38,3236.74,3093.01,3334.00,599.81,588.47,25.49,0000 0000 0000 0000 000000
2015-08-24 07:37:34,0.02,0.46,0.00,26.93,31.21,33.99,14.34,49.79,1017.76,2021.72,3236.70,3093.09,3334.01,599.84,588.72,25.54,0000 0000 0000 0000 000000
2015-08-24 07:42:35,-0.01,0.46,0.00,26.90,31.16,33.95,14.37,49.78,1017.75,2021.97,3236.79,3093.55,3334.08,599.85,588.74,25.59,0000 0000 0000 0000 000000
2015-08-24 07:47:36,-0.01,0.46,0.00,26.90,31.12,33.86,14.36,50.10,1017.74,2021.99,3236.93,3093.94,3334.58,599.94,588.94,25.64,0000 0000 0000 0000 000000
2015-08-24 07:52:38,0.00,0.46,0.00,26.90,31.08,33.76,14.37,49.83,1017.81,2021.99,3236.97,3093.99,3334.86,600.07,589.12,25.69,0000 0000 0000 0000 000000
2015-08-24 07:57:39,0.01,0.46,0.00,26.91,31.04,33.71,14.34,49.62,1017.95,2022.06,3236.96,3093.99,3334.96,599.87,588.64,25.75,0000 0000 0000 0000 000000
2015-08-24 08:02:40,0.04,0.46,0.00,26.92,31.01,33.66,14.40,50.15,1018.06,2022.45,3236.96,3094.00,3334.97,600.01,589.19,25.80,0000 0000 0000 0000 000000
2015-08-24 08:07:41,0.02,0.46,0.00,26.92,30.97,33.63,14.33,50.13,1018.08,2022.86,3236.98,3094.02,3334.99,599.72,588.76,25.85,0000 0000 0000 0000 000000
2015-08-24 08:12:43,0.00,0.46,0.00,26.94,30.94,33.59,14.29,49.94,1018.09,2022.96,3236.98,3094.11,3334.99,599.67,588.75,25.90,0000 0000 0000 0000 000000
2015-08-24 08:17:44,-0.01,0.46,0.00,26.95,30.91,33.56,14.39,49.83,1018.09,2022.99,3236.99,3094.42,3334.99,600.04,589.22,25.95,0000 0000 0000 0000 000000
2015-08-24 08:22:46,-0.01,0.46,0.00,26.95,30.89,33.55,14.39,49.81,1018.24,2023.00,3236.99,3094.86,3335.01,600.31,589.44,26.00,0000 0000 0000 0000 000000
2015-08-24 08:27:47,0.00,0.46,0.00,26.95,30.86,33.52,14.31,49.90,1018.47,2023.01,3236.99,3094.92,3335.02,599.76,588.99,26.05,0000 0000 0000 0000 000000
2015-08-24 08:32:48,0.00,0.46,0.00,26.95,30.84,33.52,14.38,50.13,1018.56,2023.02,3236.98,3094.96,3335.01,600.37,589.78,26.10,0000 0000 0000 0000 000000
2015-08-24 08:37:50,0.01,0.46,0.00,26.95,30.82,33.49,14.35,49.90,1018.54,2023.09,3236.98,3094.96,3335.02,599.93,589.28,26.15,0000 0000 0000 0000 000000
2015-08-24 08:42:51,0.00,0.46,0.00,26.95,30.80,33.49,14.36,49.93,1018.57,2023.20,3236.92,3094.95,3335.01,599.71,588.95,26.20,0000 0000 0000 0000 000000
2015-08-24 08:47:52,0.05,0.46,0.00,26.94,30.79,33.49,14.36,49.92,1018.57,2023.56,3236.82,3094.98,3335.00,600.37,589.70,26.25,0000 0000 0000 0000 000000
2015-08-24 08:52:53,0.03,0.46,0.00,26.93,30.77,33.48,14.39,49.78,1018.57,2023.85,3236.39,3094.99,3335.00,600.28,589.63,26.30,0000 0000 0000 0000 000000
2015-08-24 08:57:55,0.01,0.46,0.00,26.92,30.75,33.46,14.39,50.06,1018.57,2023.98,3236.19,3094.99,3335.00,600.36,589.74,26.35,0000 0000 0000 0000 000000
2015-08-24 09:02:56,0.00,0.46,0.00,26.92,30.75,33.45,14.37,49.90,1018.57,2023.99,3236.08,3094.99,3335.00,600.02,589.41,26.40,0000 0000 0000 0000 000000
2015-08-24 09:07:57,0.00,0.46,0.00,26.92,30.72,33.46,14.32,49.72,1018.58,2023.99,3236.00,3094.97,3335.00,600.10,589.62,26.45,0000 0000 0000 0000 000000
2015-08-24 09:12:59,0.00,0.46,0.00,26.90,30.72,33.44,14.35,49.93,1018.58,2023.99,3236.00,3094.97,3335.00,600.32,589.76,26.50,0000 0000 0000 0000 000000
2015-08-24 09:18:00,0.00,0.46,0.00,26.90,30.70,33.44,14.33,49.86,1018.58,2023.99,3236.00,3094.97,3334.98,599.83,589.04,26.55,0000 0000 0000 0000 000000
2015-08-24 09:23:01,0.00,0.46,0.00,26.90,30.70,33.44,14.43,49.93,1018.66,2023.99,3235.98,3094.93,3334.93,600.46,589.92,26.60,0000 0000 0000 0000 000000
2015-08-24 09:28:02,-0.00,0.46,0.00,26.89,30.67,33.43,14.38,50.03,1018.89,2024.00,3235.99,3094.97,3334.95,600.04,589.77,26.65,0000 0000 0000 0000 000000
2015-08-24 09:33:04,0.00,0.46,0.00,26.89,30.67,33.43,14.43,50.21,1018.85,2024.00,3235.98,3094.97,3334.95,600.25,589.90,26.70,0000 0000 0000 0000 000000
2015-08-24 09:38:05,0.00,0.46,0.00,26.87,30.65,33.42,14.35,50.19,1019.04,2024.00,3235.91,3094.92,3334.80,600.08,589.70,26.75,0000 0000 0000 0000 000000
2015-08-24 09:43:06,0.01,0.46,0.00,26.87,30.65,33.40,14.37,50.02,1019.06,2024.01,3235.49,3094.87,3334.57,600.14,589.85,26.80,0000 0000 0000 0000 000000
2015-08-24 09:48:07,-0.00,0.47,0.00,26.87,30.64,33.39,14.32,49.92,1019.06,2024.04,3235.49,3094.95,3334.64,600.02,589.87,26.85,0000 0000 0000 0000 000000
2015-08-24 09:53:09,0.02,0.47,0.00,26.87,30.62,33.38,14.31,49.67,1019.07,2024.14,3235.11,3094.96,3334.31,600.01,589.78,26.90,0000 0000 0000 0000 000000
2015-08-24 09:58:10,0.01,0.47,0.00,26.85,30.62,33.39,14.46,49.84,1019.06,2024.19,3235.00,3094.71,3334.05,600.29,589.97,26.95,0000 0000 0000 0000 000000
2015-08-24 10:03:11,0.02,0.47,0.00,26.85,30.61,33.39,14.31,49.66,1019.07,2024.21,3235.00,3094.45,3334.01,599.41,589.23,27.00,0000 0000 0000 0000 000000
2015-08-24 10:08:13,0.02,0.47,0.00,26.83,30.60,33.35,14.36,49.67,1019.07,2024.43,3234.98,3094.32,3334.00,599.86,589.67,27.05,0000 0000 0000 0000 000000
2015-08-24 10:13:14,0.01,0.47,0.00,26.82,30.60,33.37,14.26,49.62,1019.06,2024.46,3234.84,3094.11,3334.00,599.59,589.41,27.10,0000 0000 0000 0000 000000
2015-08-24 10:18:16,0.03,0.47,0.00,26.81,30.58,33.35,14.34,49.77,1019.06,2024.84,3234.51,3094.14,3333.99,599.63,589.54,27.15,0000 0000 0000 0000 000000
2015-08-24 10:23:17,0.01,0.47,0.00,26.80,30.57,33.35,14.35,49.66,1019.07,2024.92,3234.40,3094.16,3333.98,599.83,589.79,27.20,0000 0000 0000 0000 000000
2015-08-24 10:28:18,0.00,0.47,0.00,26.77,30.57,33.33,14.40,49.73,1019.14,2024.95,3234.10,3094.10,3333.97,600.35,590.33,27.25,0000 0000 0000 0000 000000
2015-08-24 10:33:19,0.00,0.47,0.00,26.76,30.55,33.33,14.37,49.68,1019.26,2024.96,3234.01,3094.08,3333.98,599.71,589.70,27.30,0000 0000 0000 0000 000000
2015-08-24 10:38:21,-0.00,0.47,0.00,26.75,30.55,33.32,14.41,49.70,1019.49,2024.99,3234.00,3094.19,3333.96,599.98,590.24,27.35,0000 0000 0000 0000 000000
2015-08-24 10:43:21,0.00,0.47,0.00,26.73,30.54,33.30,14.45,49.67,1019.55,2024.99,3234.00,3094.11,3333.91,600.19,590.50,27.40,0000 0000 0000 0000 000000
2015-08-24 10:48:23,0.00,0.47,0.00,26.72,30.52,33.30,14.38,49.64,1019.55,2024.98,3234.00,3094.02,3333.56,600.04,590.35,27.45,0000 0000 0000 0000 000000
2015-08-24 10:53:24,-0.00,0.47,0.00,26.71,30.52,33.27,14.37,49.48,1019.55,2024.99,3233.99,3094.09,3333.64,600.29,590.46,27.50,0000 0000 0000 0000 000000
2015-08-24 10:58:26,0.01,0.47,0.00,26.70,30.50,33.27,14.43,49.48,1019.69,2024.99,3233.86,3094.07,3333.44,600.10,590.57,27.55,0000 0000 0000 0000 000000
2015-08-24 11:03:27,0.01,0.47,0.00,26.71,30.50,33.28,14.36,49.58,1020.01,2025.00,3233.22,3094.04,3333.03,599.96,590.59,27.60,0000 0000 0000 0000 000000
2015-08-24 11:08:28,-0.01,0.47,0.00,26.72,30.49,33.27,14.35,49.52,1020.02,2025.00,3233.71,3094.03,3333.02,599.68,590.22,27.65,0000 0000 0000 0000 000000
2015-08-24 11:13:29,0.01,0.47,0.00,26.75,30.47,33.25,14.46,49.86,1020.03,2025.00,3233.47,3094.01,3333.05,600.31,590.91,27.70,0000 0000 0000 0000 000000
2015-08-24 11:18:31,0.00,0.47,0.00,26.75,30.46,33.24,14.35,49.88,1020.03,2025.01,3233.00,3094.00,3332.99,599.66,590.19,27.75,0000 0000 0000 0000 000000
2015-08-24 11:23:32,0.00,0.47,0.00,26.75,30.45,33.22,14.40,49.73,1020.07,2025.00,3232.93,3094.00,3332.98,599.93,590.60,27.80,0000 0000 0000 0000 000000
2015-08-24 11:28:33,0.00,0.47,0.00,26.72,30.45,33.22,14.36,49.64,1020.34,2025.01,3232.75,3093.99,3332.94,600.07,590.77,27.85,0000 0000 0000 0000 000000
2015-08-24 11:33:34,0.01,0.47,0.00,26.69,30.42,33.22,14.47,50.01,1020.45,2025.04,3232.70,3093.99,3332.96,600.02,590.95,27.90,0000 0000 0000 0000 000000
2015-08-24 11:38:36,0.01,0.47,0.00,26.66,30.42,33.21,14.39,49.63,1020.38,2025.05,3232.47,3093.99,3332.88,599.66,590.61,27.95,0000 0000 0000 0000 000000
2015-08-24 11:43:37,0.01,0.48,0.00,26.62,30.40,33.19,14.44,49.73,1020.46,2025.04,3232.03,3093.98,3332.34,600.15,591.03,28.00,0000 0000 0000 0000 000000
2015-08-24 11:48:38,0.02,0.48,0.00,26.59,30.39,33.19,14.37,49.70,1020.44,2025.16,3232.00,3093.99,3332.24,600.10,591.18,28.05,0000 0000 0000 0000 000000
2015-08-24 11:53:39,-0.01,0.48,0.00,26.56,30.37,33.18,14.34,49.50,1020.44,2025.15,3232.00,3093.96,3332.09,599.76,590.83,28.10,0000 0000 0000 0000 000000
2015-08-24 11:58:40,0.01,0.48,0.00,26.54,30.36,33.17,14.40,49.52,1020.48,2025.20,3232.00,3093.96,3332.08,599.93,591.17,28.15,0000 0000 0000 0000 000000
2015-08-24 12:03:42,0.02,0.48,0.00,26.52,30.35,33.15,14.36,49.73,1020.52,2025.52,3232.00,3093.98,3332.09,600.11,591.53,28.20,0000 0000 0000 0000 000000
2015-08-24 12:08:43,0.03,0.48,0.00,26.49,30.32,33.14,14.36,49.73,1020.52,2025.78,3232.00,3093.98,3332.06,599.91,591.26,28.25,0000 0000 0000 0000 000000
2015-08-24 12:13:44,0.00,0.48,0.00,26.47,30.31,33.12,14.41,49.83,1020.52,2025.79,3231.99,3093.97,3332.02,600.15,591.52,28.30,0000 0000 0000 0000 000000
2015-08-24 12:18:45,0.01,0.48,0.00,26.45,30.30,33.09,14.38,50.05,1020.52,2025.91,3231.97,3093.98,3332.02,599.82,591.26,28.35,0000 0000 0000 0000 000000
2015-08-24 12:23:47,0.01,0.48,0.00,26.43,30.27,33.09,14.43,49.80,1020.53,2025.94,3231.70,3093.96,3332.00,600.51,591.99,28.40,0000 0000 0000 0000 000000
2015-08-24 12:28:48,0.01,0.48,0.00,26.41,30.26,33.08,14.43,49.92,1020.53,2025.97,3231.39,3093.94,3332.00,600.16,591.70,28.45,0000 0000 0000 0000 000000
2015-08-24 12:33:49,0.00,0.48,0.00,26.38,30.24,33.04,14.43,49.83,1020.54,2025.96,3231.06,3093.93,3332.00,599.67,591.33,28.50,0000 0000 0000 0000 000000
2015-08-24 12:38:50,0.00,0.48,0.00,26.35,30.22,33.03,14.50,49.77,1020.59,2025.99,3231.03,3093.92,3331.99,599.99,591.75,28.55,0000 0000 0000 0000 000000
2015-08-24 12:43:51,0.00,0.48,0.00,26.32,30.20,33.02,14.39,49.84,1020.87,2025.99,3231.00,3093.92,3331.98,599.83,591.76,28.60,0000 0000 0000 0000 000000
2015-08-24 12:48:52,0.00,0.48,0.00,26.30,30.19,33.01,14.34,49.89,1020.98,2025.99,3231.00,3093.92,3331.96,599.86,591.86,28.65,0000 0000 0000 0000 000000
2015-08-24 12:53:54,0.00,0.48,0.00,26.26,30.17,32.97,14.45,49.88,1021.00,2025.99,3230.95,3093.88,3331.86,600.47,592.50,28.70,0000 0000 0000 0000 000000